Dover AFB, DE

7:24 AM EDT on May 23, 2018 (GMT -0400)
Dover Air Force Base

Weather History for KDOV - January, 2013

Change the Weather History Date:

Tuesday, January 15, 2013

  Actual Average Record
Temperature  
Mean Temperature 38 °F -  
Max Temperature 42 °F 41 °F 68 °F (1952)
Min Temperature 35 °F 26 °F 5 °F (1964)
Degree Days  
Heating Degree Days 26    
Moisture  
Dew Point 39 °F    
Average Humidity 100    
Maximum Humidity 100    
Minimum Humidity 93    
Precipitation  
Precipitation 0.74 in - - ()
Sea Level Pressure  
Sea Level Pressure 30.27 in    
Wind  
Wind Speed 10 mph (NNE)    
Max Wind Speed 16 mph    
Max Gust Speed -    
Visibility 8 miles    
Events Rain    
Averages and records for this station are not official NWS values.
T = Trace of Precipitation, MM = Missing Value Source: NWS Daily Summary

Daily Weather History Graph

Daily Weather History Graph

Search for Another Location

Airport or City:

Astronomy

Jan. 15, 2013 Rise Set
Actual Time 7:19 AM EST 5:03 PM EST
Civil Twilight 6:50 AM EST 5:33 PM EST
Nautical Twilight 6:17 AM EST 6:05 PM EST
Astronomical Twilight 5:45 AM EST 6:37 PM EST
Moon 9:26 AM EST (1/15) 9:48 PM EST (1/15)
Length of Visible Light 10h 42m
Length of Day
9h 44m
Waxing Crescent, 19% of the Moon is Illuminated
Jan 15
Waxing Crescent
Jan 18
First Quarter
Jan 26
Full
Feb 3
Last Quarter
Feb 10
New

Hourly Weather History & Observations

Time (EST) Temp. Windchill Dew Point Humidity Pressure Visibility Wind Dir Wind Speed Gust Speed Precip Events Conditions
12:07 AM 42.8 °F 35.4 °F 42.8 °F 100% 30.27 in 9.0 mi NNW 15.0 mph - N/A Rain Light Rain
12:25 AM 42.8 °F 35.8 °F 42.8 °F 100% 30.26 in 5.0 mi North 13.8 mph - N/A Rain Heavy Rain
12:26 AM 42.8 °F 36.2 °F 42.8 °F 100% 30.26 in 5.0 mi North 12.7 mph - N/A Rain Heavy Rain
12:55 AM 41.4 °F 34.0 °F 41.2 °F 99% 30.26 in 6.0 mi North 13.8 mph - 0.16 in Rain Rain
12:57 AM 41.0 °F 32.8 °F 41.0 °F 100% 30.27 in 7.0 mi North 16.1 mph - N/A Rain Rain
1:15 AM 41.0 °F 33.5 °F 41.0 °F 100% 30.27 in 9.0 mi North 13.8 mph - N/A Rain Rain
1:18 AM 41.0 °F 33.9 °F 41.0 °F 100% 30.27 in 8.0 mi North 12.7 mph - N/A Rain Rain
1:34 AM 41.0 °F 33.9 °F 41.0 °F 100% 30.26 in 8.0 mi North 12.7 mph - N/A Rain Light Rain
1:55 AM 41.0 °F 34.7 °F 40.8 °F 99% 30.26 in 10.0 mi North 10.4 mph - 0.06 in Rain Light Rain
2:26 AM 41.0 °F 36.4 °F 41.0 °F 100% 30.25 in 7.0 mi NNE 6.9 mph - N/A Rain Light Rain
2:55 AM 41.2 °F 36.6 °F 41.2 °F 100% 30.23 in 6.0 mi ESE 6.9 mph - 0.08 in Rain Light Rain
3:09 AM 41.0 °F 36.4 °F 41.0 °F 100% 30.23 in 6.0 mi East 6.9 mph - N/A Rain Light Rain
3:15 AM 41.0 °F 36.4 °F 41.0 °F 100% 30.23 in 6.0 mi East 6.9 mph - N/A Rain Light Rain
3:20 AM 41.0 °F 36.4 °F 41.0 °F 100% 30.22 in 6.0 mi East 6.9 mph - N/A Rain Light Rain
3:48 AM 41.0 °F 35.2 °F 41.0 °F 100% 30.20 in 7.0 mi East 9.2 mph - N/A Rain Light Rain
3:52 AM 41.0 °F 34.3 °F 41.0 °F 100% 30.19 in 8.0 mi East 11.5 mph - N/A Rain Light Rain
3:55 AM 41.2 °F 34.5 °F 41.2 °F 100% 30.19 in 8.0 mi East 11.5 mph - 0.10 in Rain Light Rain
4:02 AM 41.0 °F 38.0 °F 41.0 °F 100% 30.22 in 8.0 mi East 4.6 mph - N/A   Overcast
4:05 AM 41.0 °F 37.1 °F 41.0 °F 100% 30.22 in 8.0 mi East 5.8 mph - N/A Rain Light Rain
4:37 AM 41.0 °F 37.1 °F 41.0 °F 100% 30.23 in 10.0 mi East 5.8 mph - N/A Rain Light Rain
4:38 AM 41.0 °F 36.4 °F 41.0 °F 100% 30.23 in 10.0 mi ENE 6.9 mph - N/A Rain Light Rain
4:45 AM 41.0 °F 35.8 °F 41.0 °F 100% 30.24 in 10.0 mi NE 8.1 mph - N/A Rain Light Rain
4:50 AM 41.0 °F 37.1 °F 41.0 °F 100% 30.24 in 10.0 mi NNE 5.8 mph - N/A Rain Light Rain
4:55 AM 40.6 °F 36.0 °F 40.6 °F 100% 30.25 in 10.0 mi North 6.9 mph - 0.02 in Rain Light Rain
5:04 AM 41.0 °F 35.8 °F 41.0 °F 100% 30.25 in 10.0 mi NNE 8.1 mph - N/A Rain Light Rain
5:16 AM 41.0 °F 35.8 °F 41.0 °F 100% 30.25 in 10.0 mi NNE 8.1 mph - N/A   Overcast
5:30 AM 41.0 °F 36.4 °F 41.0 °F 100% 30.24 in 10.0 mi NNE 6.9 mph - N/A   Overcast
5:44 AM 41.0 °F 34.7 °F 41.0 °F 100% 30.27 in 10.0 mi North 10.4 mph - N/A   Overcast
5:45 AM 41.0 °F 34.7 °F 41.0 °F 100% 30.27 in 10.0 mi North 10.4 mph - N/A   Overcast
5:46 AM 41.0 °F 35.2 °F 41.0 °F 100% 30.27 in 10.0 mi North 9.2 mph - N/A   Overcast
5:52 AM 41.0 °F 35.8 °F 41.0 °F 100% 30.26 in 10.0 mi NNE 8.1 mph - N/A   Overcast
5:55 AM 40.3 °F 36.3 °F 40.3 °F 100% 30.25 in 10.0 mi NNE 5.8 mph - 0.00 in   Overcast
5:58 AM 41.0 °F 36.4 °F 41.0 °F 100% 30.25 in 10.0 mi NE 6.9 mph - N/A   Overcast
6:05 AM 41.0 °F 35.8 °F 39.2 °F 93% 30.25 in 10.0 mi NE 8.1 mph - N/A   Overcast
6:10 AM 41.0 °F 34.7 °F 39.2 °F 93% 30.26 in 10.0 mi NNE 10.4 mph - N/A   Overcast
6:28 AM 39.2 °F 32.5 °F 39.2 °F 100% 30.26 in 10.0 mi NNE 10.4 mph - N/A   Overcast
6:36 AM 39.2 °F 32.5 °F 39.2 °F 100% 30.26 in 10.0 mi NNE 10.4 mph - N/A   Overcast
6:49 AM 39.2 °F 32.0 °F 39.2 °F 100% 30.26 in 10.0 mi NNE 11.5 mph - N/A   Overcast
6:50 AM 39.2 °F 32.5 °F 39.2 °F 100% 30.25 in 10.0 mi NNE 10.4 mph - N/A   Overcast
6:51 AM 39.2 °F 32.0 °F 39.2 °F 100% 30.25 in 10.0 mi NNE 11.5 mph - N/A   Overcast
6:53 AM 39.2 °F 32.0 °F 39.2 °F 100% 30.26 in 10.0 mi NNE 11.5 mph - N/A   Overcast
6:55 AM 39.4 °F 32.3 °F 39.2 °F 99% 30.26 in 10.0 mi NNE 11.5 mph - N/A   Overcast
6:59 AM 39.2 °F 32.5 °F 39.2 °F 100% 30.26 in 9.0 mi NNE 10.4 mph - N/A   Overcast
7:01 AM 39.2 °F 32.5 °F 39.2 °F 100% 30.27 in 8.0 mi NNE 10.4 mph - N/A   Overcast
7:04 AM 39.2 °F 32.0 °F 39.2 °F 100% 30.27 in 7.0 mi North 11.5 mph - N/A   Overcast
7:27 AM 39.2 °F 33.6 °F 39.2 °F 100% 30.26 in 10.0 mi ENE 8.1 mph - N/A   Overcast
7:33 AM 39.2 °F 34.2 °F 39.2 °F 100% 30.27 in 10.0 mi NE 6.9 mph - N/A Rain Light Rain
7:54 AM 39.2 °F 33.0 °F 39.2 °F 100% 30.29 in 5.0 mi North 9.2 mph - N/A Rain Light Rain
7:55 AM 39.0 °F 32.8 °F 38.8 °F 99% 30.29 in 4.0 mi North 9.2 mph - 0.01 in Rain Light Rain
7:57 AM 39.2 °F 32.5 °F 39.2 °F 100% 30.30 in 3.0 mi North 10.4 mph - N/A Rain Light Rain
8:06 AM 39.2 °F 34.2 °F 39.2 °F 100% 30.30 in 3.0 mi Variable 6.9 mph - N/A   Overcast
8:14 AM 39.2 °F 33.6 °F 39.2 °F 100% 30.30 in 3.0 mi North 8.1 mph - N/A   Overcast
8:16 AM 39.2 °F 33.6 °F 39.2 °F 100% 30.31 in 3.0 mi North 8.1 mph - N/A Rain Light Rain
8:24 AM 39.2 °F 33.6 °F 39.2 °F 100% 30.31 in 4.0 mi North 8.1 mph - N/A Rain Light Rain
8:37 AM 39.2 °F 33.0 °F 39.2 °F 100% 30.30 in 3.0 mi NNE 9.2 mph - N/A   Light Drizzle
8:54 AM 39.2 °F 33.6 °F 39.2 °F 100% 30.33 in 6.0 mi North 8.1 mph - N/A   Overcast
8:55 AM 38.8 °F 33.2 °F 38.8 °F 100% 30.32 in 6.0 mi North 8.1 mph - 0.01 in   Overcast
9:20 AM 39.2 °F 33.0 °F 39.2 °F 100% 30.32 in 6.0 mi North 9.2 mph - N/A   Overcast
9:32 AM 39.2 °F 31.6 °F 39.2 °F 100% 30.34 in 7.0 mi NNW 12.7 mph - N/A   Overcast
9:37 AM 39.2 °F 32.0 °F 39.2 °F 100% 30.34 in 6.0 mi North 11.5 mph - N/A   Overcast
9:38 AM 39.2 °F 33.0 °F 39.2 °F 100% 30.34 in 6.0 mi North 9.2 mph - N/A   Light Drizzle
9:40 AM 39.2 °F 33.0 °F 39.2 °F 100% 30.33 in 5.0 mi North 9.2 mph - N/A   Light Drizzle
9:55 AM 39.0 °F 34.0 °F 39.0 °F 100% 30.32 in 4.0 mi North 6.9 mph - 0.00 in   Light Drizzle
10:01 AM 39.2 °F 34.2 °F 39.2 °F 100% 30.32 in 5.0 mi North 6.9 mph - N/A   Overcast
10:10 AM 39.2 °F 32.0 °F 39.2 °F 100% 30.34 in 6.0 mi North 11.5 mph - N/A   Overcast
10:11 AM 39.2 °F 32.0 °F 39.2 °F 100% 30.33 in 6.0 mi North 11.5 mph - N/A   Overcast
10:12 AM 39.2 °F 32.0 °F 39.2 °F 100% 30.32 in 6.0 mi North 11.5 mph - N/A   Overcast
10:13 AM 39.2 °F 33.0 °F 39.2 °F 100% 30.32 in 6.0 mi North 9.2 mph - N/A   Overcast
10:14 AM 39.2 °F 33.6 °F 39.2 °F 100% 30.32 in 5.0 mi North 8.1 mph - N/A   Light Drizzle
10:18 AM 39.2 °F 33.0 °F 39.2 °F 100% 30.33 in 5.0 mi North 9.2 mph - N/A Rain Light Rain
10:42 AM 39.2 °F 34.2 °F 39.2 °F 100% 30.31 in 4.0 mi NNE 6.9 mph - N/A   Overcast
10:55 AM 39.0 °F 34.0 °F 39.0 °F 100% 30.32 in 7.0 mi North 6.9 mph - 0.00 in   Overcast
11:05 AM 39.2 °F 32.5 °F 39.2 °F 100% 30.33 in 9.0 mi North 10.4 mph - N/A   Overcast
11:11 AM 39.2 °F 33.0 °F 39.2 °F 100% 30.33 in 10.0 mi North 9.2 mph - N/A   Overcast
11:17 AM 39.2 °F 33.0 °F 39.2 °F 100% 30.31 in 10.0 mi North 9.2 mph - N/A   Overcast
11:20 AM 39.2 °F 34.2 °F 39.2 °F 100% 30.32 in 10.0 mi North 6.9 mph - N/A   Overcast
11:21 AM 39.2 °F 33.6 °F 39.2 °F 100% 30.32 in 10.0 mi North 8.1 mph - N/A Rain Light Rain
11:25 AM 39.2 °F 32.0 °F 39.2 °F 100% 30.33 in 10.0 mi North 11.5 mph - N/A Rain Light Rain
11:41 AM 39.2 °F 33.0 °F 39.2 °F 100% 30.31 in 8.0 mi North 9.2 mph - N/A Rain Light Rain
11:55 AM 39.0 °F 33.4 °F 38.7 °F 99% 30.31 in 4.0 mi NNE 8.1 mph - 0.01 in Rain Light Rain
11:56 AM 39.2 °F 33.6 °F 39.2 °F 100% 30.31 in 5.0 mi North 8.1 mph - N/A Rain Light Rain
11:57 AM 39.2 °F 33.0 °F 39.2 °F 100% 30.31 in 5.0 mi North 9.2 mph - N/A Rain Light Rain
12:15 PM 39.2 °F 34.2 °F 39.2 °F 100% 30.29 in 7.0 mi NNE 6.9 mph - N/A   Overcast
12:16 PM 39.2 °F 34.2 °F 39.2 °F 100% 30.29 in 7.0 mi North 6.9 mph - N/A   Light Drizzle
12:19 PM 39.2 °F 34.2 °F 39.2 °F 100% 30.28 in 8.0 mi NNE 6.9 mph - N/A   Light Drizzle
12:23 PM 39.2 °F 34.2 °F 39.2 °F 100% 30.29 in 8.0 mi NNE 6.9 mph - N/A   Light Drizzle
12:26 PM 39.2 °F 35.0 °F 39.2 °F 100% 30.29 in 8.0 mi North 5.8 mph - N/A   Overcast
12:27 PM 39.2 °F 35.0 °F 39.2 °F 100% 30.28 in 8.0 mi NNE 5.8 mph - N/A   Light Drizzle
12:33 PM 39.2 °F 33.0 °F 39.2 °F 100% 30.29 in 9.0 mi North 9.2 mph - N/A Rain Light Rain
12:51 PM 39.2 °F 35.0 °F 39.2 °F 100% 30.26 in 8.0 mi NE 5.8 mph - N/A Rain Light Rain
12:55 PM 39.4 °F 34.5 °F 39.0 °F 99% 30.28 in 7.0 mi North 6.9 mph - 0.00 in Rain Light Rain
12:56 PM 39.2 °F 34.2 °F 39.2 °F 100% 30.28 in 7.0 mi North 6.9 mph - N/A Rain Light Rain
1:01 PM 39.2 °F 32.5 °F 39.2 °F 100% 30.30 in 7.0 mi NNW 10.4 mph - N/A Rain Light Rain
1:37 PM 39.2 °F 33.6 °F 39.2 °F 100% 30.28 in 8.0 mi North 8.1 mph - N/A Rain Light Rain
1:44 PM 39.2 °F 34.2 °F 39.2 °F 100% 30.28 in 9.0 mi North 6.9 mph - N/A Rain Light Rain
1:51 PM 39.2 °F 34.2 °F 39.2 °F 100% 30.28 in 10.0 mi North 6.9 mph - N/A Rain Light Rain
1:53 PM 39.2 °F 35.0 °F 39.2 °F 100% 30.28 in 10.0 mi North 5.8 mph - N/A Rain Light Rain
1:54 PM 39.2 °F 35.0 °F 39.2 °F 100% 30.28 in 10.0 mi North 5.8 mph - N/A Rain Light Rain
1:55 PM 38.7 °F 33.6 °F 38.5 °F 99% 30.29 in 10.0 mi North 6.9 mph - 0.01 in Rain Light Rain
2:10 PM 39.2 °F 35.0 °F 37.4 °F 93% 30.28 in 10.0 mi NNE 5.8 mph - N/A Rain Light Rain
2:48 PM 39.2 °F 35.9 °F 39.2 °F 100% 30.27 in 10.0 mi North 4.6 mph - N/A   Overcast
2:55 PM 38.8 °F 34.6 °F 38.7 °F 99% 30.27 in 10.0 mi North 5.8 mph - 0.00 in   Overcast
3:55 PM 38.8 °F 34.6 °F 38.7 °F 99% 30.26 in 10.0 mi NNE 5.8 mph - N/A   Overcast
4:55 PM 38.7 °F 35.2 °F 38.5 °F 99% 30.27 in 10.0 mi NNE 4.6 mph - N/A   Overcast
5:49 PM 39.2 °F 34.2 °F 39.2 °F 100% 30.26 in 10.0 mi North 6.9 mph - N/A   Overcast
5:55 PM 38.7 °F 33.6 °F 38.3 °F 99% 30.25 in 10.0 mi NNE 6.9 mph - N/A   Overcast
5:57 PM 39.2 °F 34.2 °F 39.2 °F 100% 30.26 in 10.0 mi NNE 6.9 mph - N/A   Overcast
6:04 PM 39.2 °F 35.0 °F 39.2 °F 100% 30.27 in 10.0 mi NE 5.8 mph - N/A   Overcast
6:19 PM 39.2 °F 33.6 °F 39.2 °F 100% 30.25 in 10.0 mi NE 8.1 mph - N/A   Overcast
6:24 PM 39.2 °F 33.6 °F 39.2 °F 100% 30.25 in 10.0 mi NE 8.1 mph - N/A Rain Light Rain
6:39 PM 39.2 °F 35.9 °F 39.2 °F 100% 30.25 in 10.0 mi NE 4.6 mph - N/A   Overcast
6:48 PM 39.2 °F 35.9 °F 39.2 °F 100% 30.27 in 10.0 mi NNE 4.6 mph - N/A   Overcast
6:55 PM 38.7 °F 32.4 °F 38.3 °F 99% 30.23 in 10.0 mi East 9.2 mph - 0.00 in   Overcast
6:59 PM 39.2 °F 35.0 °F 39.2 °F 100% 30.25 in 10.0 mi NE 5.8 mph - N/A   Overcast
7:10 PM 39.2 °F 34.2 °F 39.2 °F 100% 30.27 in 10.0 mi Variable 6.9 mph - N/A   Overcast
7:55 PM 38.7 °F 33.6 °F 38.5 °F 99% 30.26 in 10.0 mi NNE 6.9 mph - N/A   Overcast
8:06 PM 39.2 °F 34.2 °F 39.2 °F 100% 30.26 in 10.0 mi North 6.9 mph - N/A   Overcast
8:55 PM 38.1 °F 31.7 °F 37.9 °F 99% 30.24 in 10.0 mi NNE 9.2 mph - 0.01 in Rain Light Rain
9:31 PM 37.4 °F 30.8 °F 37.4 °F 100% 30.22 in 7.0 mi NNE 9.2 mph - N/A Rain Light Rain
9:39 PM 37.4 °F 31.4 °F 37.4 °F 100% 30.22 in 7.0 mi NNE 8.1 mph - N/A Rain Rain
9:55 PM 37.2 °F 31.2 °F 37.0 °F 99% 30.21 in 7.0 mi NNE 8.1 mph - 0.06 in Rain Light Rain
10:00 PM 37.4 °F 31.4 °F 37.4 °F 100% 30.22 in 7.0 mi NE 8.1 mph - N/A Rain Rain
10:04 PM 37.4 °F 30.8 °F 37.4 °F 100% 30.22 in 7.0 mi NNE 9.2 mph - N/A Rain Light Rain
10:55 PM 36.1 °F 29.9 °F 35.8 °F 99% 30.19 in 6.0 mi NE 8.1 mph - 0.14 in Rain Light Rain
11:01 PM 35.6 °F 28.6 °F 35.6 °F 100% 30.19 in 5.0 mi NNE 9.2 mph - N/A Rain Rain
11:04 PM 35.6 °F 27.5 °F 35.6 °F 100% 30.18 in 5.0 mi NNE 11.5 mph - N/A Rain Rain
11:10 PM 35.6 °F 28.0 °F 35.6 °F 100% 30.18 in 6.0 mi NNE 10.4 mph - N/A Rain Light Rain
11:42 PM 35.6 °F 28.0 °F 35.6 °F 100% 30.17 in 5.0 mi NNE 10.4 mph - N/A Rain Light Rain
11:55 PM 35.8 °F 28.8 °F 35.6 °F 99% 30.17 in 5.0 mi NNE 9.2 mph - 0.07 in Rain Light Rain